Location: Archemont
(49.1579°N, 1.7598°E)
Time: 04:36:17
(UTC+00:00)

S-56A Canister/Altair - Pass Details

Date: 22 April 2024
Orbit: 638 x 2488 km, 38.9° (Epoch: 18 May)

Event Time Altitude Azimuth Distance (km) Brightness Sun altitude
Rises 17:48:53 0° 246° (WSW) 3,244 11.8 9.9°
Reaches altitude 10° 17:51:11 10° 237° (WSW) 2,468 11.0 9.5°
Maximum altitude 17:56:27 36° 172° (S) 1,623 9.2 8.6°
Drops below altitude 10° 18:03:50 10° 111° (ESE) 3,501 10.3 7.4°
Sets 18:07:45 0° 104° (ESE) 4,808 10.9 6.8°
